Find Starlink 37053

NORAD ID: 68159 Int'l Des: 2026-049 Owner: SPXS Country: US Constellation: starlink operational
LEOCIRCULARRETROGRADE

リアルタイム位置

3D地球を読み込み中...

Starlink 37053について

説明を読み込み中...

次回通過

Passes for default location (London). Set your location on the main map for personalized predictions.

高度履歴

Loading altitude history...

軌道要素

1 68159U 26049T 26121.25002315 -.01968689 00000-0 -28522-1 0 9999
2 68159 97.2838 143.1167 0001133 82.2203 288.0100 15.59257428 6010
Epoch: May 1, 2026 • Age: 6 hours

現在のステータス

高度 397.6 km
速度 7.67 km/s
衛星直下点 -7.99°S, 103.67°E
打ち上げ日 Mar 13, 2026
運用期間 0.1 years
タイプ internet

技術仕様

分類 Payload
質量 575.00 kg
乾燥質量 530.00 kg
総質量 575.00 kg
長さ 0.30 m
直径 4.10 m
スパン 29.00 m
形状 Box + pan
製造者 SPXS
バスタイプ Starlink V2MO
フェーズステータス In Orbit
所有者/国 SPXS/US

Most Searched